2023/10/08 00:00:00,54.2,10.9
2023/10/08 00:10:00,54.2,10.9
2023/10/08 00:20:00,54.2,10.6
2023/10/08 00:30:00,54.2,10.8
2023/10/08 00:40:00,54.3,10.9
2023/10/08 00:50:00,54.2,10.8
2023/10/08 01:00:00,54.3,10.9
2023/10/08 01:10:00,54.2,10.9
2023/10/08 01:20:00,54.3,10.8
2023/10/08 01:30:00,54.3,10.7
2023/10/08 01:40:00,54.2,10.9
2023/10/08 01:50:00,54.2,10.7
2023/10/08 02:00:00,54.2,10.8
2023/10/08 02:10:00,54.3,10.8
2023/10/08 02:20:00,54.3,10.7
2023/10/08 02:30:00,54.3,10.7
2023/10/08 02:40:00,54.3,10.6
2023/10/08 02:50:00,54.3,10.8
2023/10/08 03:00:00,54.3,10.9
2023/10/08 03:10:00,54.3,10.8
2023/10/08 03:20:00,54.2,10.9
2023/10/08 03:30:00,54.3,10.8
2023/10/08 03:40:00,54.3,10.7
2023/10/08 03:50:00,54.3,10.6
2023/10/08 04:00:00,54.4,10.6
2023/10/08 04:10:00,54.3,10.4
2023/10/08 04:20:00,54.3,10.7
2023/10/08 04:30:00,54.3,10.6
2023/10/08 04:40:00,54.3,10.3
2023/10/08 04:50:00,54.3,10.4
2023/10/08 05:00:00,54.3,10.5
2023/10/08 05:10:00,54.3,10.2
2023/10/08 05:20:00,54.3,10.4
2023/10/08 05:30:00,54.3,10.3
2023/10/08 05:40:00,54.3,10.3
2023/10/08 05:50:00,54.3,10.5
2023/10/08 06:00:00,54.3,10.1
2023/10/08 06:10:00,54.4,10.5
2023/10/08 06:20:00,54.4,10.5
2023/10/08 06:30:00,54.4,10.6
2023/10/08 06:40:00,54.3,10.8
2023/10/08 06:50:00,54.3,10.8
2023/10/08 07:00:00,54.2,11.1
2023/10/08 07:10:00,54.3,11.2
2023/10/08 07:20:00,54.3,11.4
2023/10/08 07:30:00,54.1,11.7
2023/10/08 07:40:00,54.1,12.1
2023/10/08 07:50:00,54.0,12.2
2023/10/08 08:00:00,54.0,12.5
2023/10/08 08:10:00,54.2,12.8
2023/10/08 08:20:00,54.1,12.9
2023/10/08 08:30:00,54.3,13.0
2023/10/08 08:40:00,54.2,13.2
2023/10/08 08:50:00,54.1,13.4
2023/10/08 09:00:00,54.1,13.3
2023/10/08 09:10:00,54.2,13.2
2023/10/08 09:20:00,54.0,13.4
2023/10/08 09:30:00,54.0,13.7
2023/10/08 09:40:00,54.1,13.7
2023/10/08 09:50:00,54.0,13.9
2023/10/08 10:00:00,54.1,14.0
2023/10/08 10:10:00,53.9,14.6
2023/10/08 10:20:00,54.0,14.5
2023/10/08 10:30:00,54.0,14.7
2023/10/08 10:40:00,54.0,14.8
2023/10/08 10:50:00,53.9,14.9
2023/10/08 11:00:00,53.2,15.2
2023/10/08 11:10:00,54.0,15.4
2023/10/08 11:20:00,53.9,15.4
2023/10/08 11:30:00,53.9,15.9
2023/10/08 11:40:00,53.8,16.0
2023/10/08 11:50:00,53.9,16.0
2023/10/08 12:00:00,53.9,15.9
2023/10/08 12:10:00,53.5,16.0
2023/10/08 12:20:00,53.7,16.4
2023/10/08 12:30:00,54.0,16.7
2023/10/08 12:40:00,53.8,16.7
2023/10/08 12:50:00,53.8,16.8
2023/10/08 13:00:00,53.8,16.7
2023/10/08 13:10:00,53.8,17.1
2023/10/08 13:20:00,53.7,16.3
2023/10/08 13:30:00,53.7,16.7
2023/10/08 13:40:00,53.9,16.4
2023/10/08 13:50:00,53.9,16.3
2023/10/08 14:00:00,53.9,16.0
2023/10/08 14:10:00,53.9,16.2
2023/10/08 14:20:00,53.9,16.5
2023/10/08 14:30:00,53.9,16.7
2023/10/08 14:40:00,53.9,16.4
2023/10/08 14:50:00,54.0,16.0
2023/10/08 15:00:00,54.1,15.4
2023/10/08 15:10:00,54.0,15.6
2023/10/08 15:20:00,54.1,15.8
2023/10/08 15:30:00,54.0,15.7
2023/10/08 15:40:00,54.2,15.7
2023/10/08 15:50:00,54.1,15.6
2023/10/08 16:00:00,54.0,15.9
2023/10/08 16:10:00,54.0,15.9
2023/10/08 16:20:00,54.0,15.5
2023/10/08 16:30:00,54.0,15.2
2023/10/08 16:40:00,54.1,15.1
2023/10/08 16:50:00,54.2,15.0
2023/10/08 17:00:00,54.2,14.9
2023/10/08 17:10:00,54.2,14.8
2023/10/08 17:20:00,54.2,14.7
2023/10/08 17:30:00,54.2,14.2
2023/10/08 17:40:00,54.2,14.4
2023/10/08 17:50:00,54.3,13.9
2023/10/08 18:00:00,54.3,13.9
2023/10/08 18:10:00,54.3,13.7
2023/10/08 18:20:00,54.3,13.6
2023/10/08 18:30:00,54.3,13.6
2023/10/08 18:40:00,54.3,13.5
2023/10/08 18:50:00,54.3,13.3
2023/10/08 19:00:00,54.3,13.3
2023/10/08 19:10:00,54.4,13.3
2023/10/08 19:20:00,54.4,13.3
2023/10/08 19:30:00,54.3,13.4
2023/10/08 19:40:00,54.4,13.3
2023/10/08 19:50:00,54.3,13.7
2023/10/08 20:00:00,54.2,13.5
2023/10/08 20:10:00,54.2,13.6
2023/10/08 20:20:00,54.0,13.3
2023/10/08 20:30:00,53.9,13.6
2023/10/08 20:40:00,54.0,13.1
2023/10/08 20:50:00,53.7,13.2
2023/10/08 21:00:00,35.1,13.2
2023/10/08 21:10:00,24.7,13.1
2023/10/08 21:20:00,29.1,13.1
2023/10/08 21:30:00,43.9,13.0
2023/10/08 21:40:00,51.3,12.9
2023/10/08 21:50:00,52.1,13.0
2023/10/08 22:00:00,52.6,12.9
2023/10/08 22:10:00,52.8,12.9
2023/10/08 22:20:00,52.3,12.6
2023/10/08 22:30:00,50.9,12.8
2023/10/08 22:40:00,51.3,12.5
2023/10/08 22:50:00,42.8,12.7
2023/10/08 23:00:00,37.5,12.6
2023/10/08 23:10:00,44.5,12.6
2023/10/08 23:20:00,51.8,12.8
2023/10/08 23:30:00,---,12.6
2023/10/08 23:40:00,43.4,12.7
2023/10/08 23:50:00,51.4,12.5
